Terug naar catalogus

BREEZE-M DEB

ActiefHEO
NORAD 39325·DEBRIS·🇷🇺 Russia

Gelanceerd Mar 14, 2008 vanaf Baikonur Cosmodrome

Loading…

Volgende Passages (komende 24 uur)

TLE

VersSource: Space-Track

Epoch: Sep 10, 2026, 18:44 UTC

1 39325U 08011DC  26253.78116421  .00257240  00000-0  13432+0 0  9992
2 39325  49.7465  53.7284 6517198 126.1756 313.0695  3.25484769 13901

Volg BREEZE-M DEB in realtime met AllMySat

Download on the App Store